GW3457 Weather Reports


Display with metric or nautical units.
time (UTC)temp
F
wind
direction
speed
MPH
gust
MPH
rain 1hr
in
rain 24hr
in
rain mn
in
humidity
%
barometer
mb
20260504044559 42 162 1.0 4.0 0.00 0.00 0.00 72 1015.2
20260504043055 42 180 1.0 4.0 0.00 0.00 0.00 72 1015.2
20260504041549 43 0 1.0 4.0 0.00 0.00 0.00 71 1015.1
20260504040104 43 171 2.0 4.0 0.00 0.00 0.00 71 1015.2
20260504034611 44 0 0.0 0.0 0.00 0.00 0.00 68 1015.2
20260504033047 44 0 0.0 0.0 0.00 0.00 0.00 67 1015.0
20260504031544 45 0 0.0 2.0 0.00 0.00 0.00 66 1015.0
20260504030048 45 0 0.0 0.0 0.00 0.00 0.00 65 1015.1
20260504024549 46 0 0.0 4.0 0.00 0.00 0.00 63 1015.0
20260504023048 46 360 1.0 4.0 0.00 0.00 0.00 61 1015.0
20260504021550 47 0 0.0 3.0 0.00 0.00 0.00 59 1015.0
20260504020043 48 360 1.0 3.0 0.00 0.00 0.00 57 1014.7
20260504014543 48 0 1.0 3.0 0.00 0.00 0.00 55 1014.6
20260504013053 49 360 1.0 3.0 0.00 0.00 0.00 53 1014.6
20260504011548 51 0 0.0 2.0 0.00 0.00 0.00 50 1014.6
20260504010052 52 360 1.0 3.0 0.00 0.00 0.00 47 1014.5
20260504004550 53 360 1.0 3.0 0.00 0.00 0.00 43 1014.4
20260504003048 54 0 0.0 3.0 0.00 0.00 0.00 41 1014.2
20260504001600 56 179 0.0 2.0 0.00 0.00 0.00 38 1014.2
20260504000047 58 0 0.0 7.0 0.00 0.00 0.00 34 1014.1
20260503234549 59 44 2.0 10.0 0.00 0.00 0.00 30 1013.8
20260503233045 59 177 3.0 11.0 0.00 0.00 0.00 30 1013.9
20260503231548 59 165 4.0 11.0 0.00 0.00 0.00 29 1013.8
20260503230047 60 154 3.0 12.0 0.00 0.00 0.00 29 1013.7
20260503224546 60 14 6.0 16.0 0.00 0.00 0.00 28 1013.5
20260503223048 61 26 4.0 16.0 0.00 0.00 0.00 27 1013.5
20260503221547 61 21 5.0 18.0 0.00 0.00 0.00 28 1013.7
20260503220049 61 19 8.0 17.0 0.00 0.00 0.00 28 1013.8
20260503214547 61 17 10.0 15.0 0.00 0.00 0.00 27 1013.7
20260503213047 61 17 9.0 24.0 0.00 0.00 0.00 27 1014.1
20260503211556 61 15 7.0 20.0 0.00 0.00 0.00 28 1013.8
20260503210047 61 18 7.0 20.0 0.00 0.00 0.00 27 1013.9
20260503204555 61 15 6.0 14.0 0.00 0.00 0.00 27 1013.8
20260503203051 61 21 9.0 19.0 0.00 0.00 0.00 27 1014.0
20260503201547 61 19 8.0 20.0 0.00 0.00 0.00 27 1014.0
20260503200050 61 19 5.0 17.0 0.00 0.00 0.00 28 1014.2
20260503194549 60 19 5.0 16.0 0.00 0.00 0.00 26 1014.4
20260503193102 61 17 7.0 16.0 0.00 0.00 0.00 28 1014.5
20260503191550 60 15 2.0 15.0 0.00 0.00 0.00 30 1014.6
20260503184543 59 22 8.0 19.0 0.00 0.00 0.00 28 1015.1
20260503183057 60 15 4.0 18.0 0.00 0.00 0.00 29 1015.1
20260503181541 59 19 6.0 20.0 0.00 0.00 0.00 28 1015.2
20260503180056 58 17 5.0 16.0 0.00 0.00 0.00 28 1015.4
20260503174550 58 13 6.0 17.0 0.00 0.00 0.00 28 1015.5
20260503173103 57 19 5.0 15.0 0.00 0.00 0.00 29 1015.3
20260503171550 55 18 8.0 25.0 0.00 0.00 0.00 30 1015.8
20260503081550 41 132 4.0 11.0 0.00 0.00 0.00 61 1015.5
20260503071605 42 123 4.0 9.0 0.00 0.00 0.00 62 1015.0
20260503054547 42 125 0.0 5.0 0.00 0.00 0.00 67 1014.9
20260503053052 42 134 1.0 7.0 0.00 0.00 0.00 67 1015.1
20260503051556 42 142 1.0 9.0 0.00 0.00 0.00 67 1015.1